Date String (YYYY-MM-DD hh:mm:ss) UTC,Instrument flags,Ambient pressure (hPa),Sample flow (lpm),Bypass flow (lpm),Sample temperature (°C),Ambient temperature (°C),ASC tube jacket temperature (°C),LED temperature (°C),Box temperature (°C),Sample RH (%),Span deviation,Mass concentration (μg/m³),Mass concentration (μg/m³),Mass concentration (μg/m³)
DateTimeUTC,F1_M11,P_M11,Q1_M11,Q2_M11,T1_M11,T2_M11,T3_M11,T4_M11,T5_M11,U1_M11,ZSPAN_M11,X0_M11,X2_M11,X1_M11
2022-11-04 18:00:00,,0821.6,5.00,0.00,23.7,22.7,00.0,32.4,25.7,15.0,-001.1,0009.85,0008.35,0008.13
2022-11-04 18:01:00,,0821.6,5.00,0.00,23.8,22.7,00.0,32.4,25.7,14.9,-001.2,0009.87,0008.39,0008.17
2022-11-04 18:02:00,,0821.6,5.01,0.00,23.8,22.7,00.0,32.4,25.7,14.9,-001.6,0009.94,0008.41,0008.20
2022-11-04 18:03:00,,0821.6,4.99,0.00,23.8,22.7,00.0,32.4,25.7,14.9,-001.1,0010.00,0008.44,0008.22
2022-11-04 18:04:00,,0821.5,4.99,0.00,23.8,22.7,00.0,32.5,25.7,14.8,-000.4,0009.93,0008.44,0008.24
2022-11-04 18:05:00,,0821.5,5.00,0.00,23.8,22.7,00.0,32.5,25.7,14.8,-000.5,0009.90,0008.43,0008.24
2022-11-04 18:06:00,,0821.5,5.01,0.00,23.8,22.7,00.0,32.5,25.8,15.0,-000.8,0009.88,0008.44,0008.27
2022-11-04 18:07:00,,0821.6,5.00,0.00,23.8,22.7,00.0,32.5,25.7,15.1,-000.4,0009.90,0008.46,0008.30
2022-11-04 18:08:00,,0821.6,5.01,0.00,23.8,22.7,00.0,32.5,25.8,15.3,-000.1,0009.94,0008.51,0008.32
2022-11-04 18:09:00,,0821.6,4.98,0.00,23.9,22.8,00.0,32.5,25.8,15.7,0000.2,0009.89,0008.54,0008.34
2022-11-04 18:10:00,,0821.6,5.00,0.00,23.9,22.8,00.0,32.5,25.8,15.5,0000.2,0010.01,0008.58,0008.36
2022-11-04 18:11:00,,0821.6,5.01,0.00,23.9,22.8,00.0,32.5,25.8,15.4,0000.0,0010.14,0008.63,0008.40
2022-11-04 18:12:00,,0821.6,5.01,0.00,23.9,22.8,00.0,32.6,25.8,14.9,0000.4,0010.20,0008.64,0008.41
2022-11-04 18:13:00,,0821.6,4.98,0.00,23.9,22.8,00.0,32.6,25.9,14.7,0000.1,0010.61,0008.67,0008.44
2022-11-04 18:14:00,,0821.5,5.01,0.00,23.9,22.8,00.0,32.6,25.9,14.8,-000.4,0010.78,0008.69,0008.45
2022-11-04 18:15:00,,0821.5,5.01,0.00,23.9,22.8,00.0,32.6,25.9,15.1,-000.1,0010.95,0008.71,0008.47
2022-11-04 18:16:00,,0821.5,4.99,0.00,23.9,22.8,00.0,32.6,25.9,15.1,-000.5,0011.36,0008.75,0008.51
2022-11-04 18:17:00,,0821.5,4.99,0.00,24.0,22.9,00.0,32.6,25.9,15.2,-000.3,0011.52,0008.80,0008.53
2022-11-04 18:18:00,,0821.4,5.01,0.00,24.0,22.9,00.0,32.6,26.0,15.3,-001.1,0011.56,0008.83,0008.57
2022-11-04 18:19:00,,0821.4,5.00,0.00,24.0,22.9,00.0,32.7,26.0,14.9,-001.5,0011.52,0008.81,0008.57
2022-11-04 18:20:00,,0821.4,4.99,0.00,24.0,22.9,00.0,32.7,26.0,14.8,-001.7,0011.49,0008.80,0008.57
2022-11-04 18:21:00,,0821.4,5.00,0.00,24.0,22.9,00.0,32.7,26.0,14.7,-002.1,0011.39,0008.76,0008.55
2022-11-04 18:22:00,,0821.4,5.00,0.00,24.0,22.9,00.0,32.7,26.0,14.7,-002.1,0011.29,0008.73,0008.52
2022-11-04 18:23:00,,0821.4,5.00,0.00,24.0,22.9,00.0,32.7,26.0,14.6,-002.2,0011.25,0008.73,0008.51
2022-11-04 18:24:00,,0821.4,5.00,0.00,24.0,22.8,00.0,32.7,25.9,14.9,-002.2,0010.83,0008.72,0008.50
2022-11-04 18:25:00,,0821.4,5.01,0.00,24.0,22.8,00.0,32.7,25.9,14.8,-002.2,0010.63,0008.70,0008.47
2022-11-04 18:26:00,,0821.4,4.99,0.00,24.0,22.8,00.0,32.7,25.9,14.8,-002.1,0010.48,0008.69,0008.46
2022-11-04 18:27:00,,0821.4,5.00,0.00,24.0,22.8,00.0,32.7,25.9,14.8,-002.1,0010.13,0008.69,0008.44
2022-11-04 18:28:00,,0821.4,5.01,0.00,24.0,22.8,00.0,32.7,25.9,14.8,-002.0,0010.06,0008.69,0008.42
2022-11-04 18:29:00,,0821.4,5.00,0.00,24.0,22.8,00.0,32.7,25.9,15.0,-001.9,0010.04,0008.68,0008.40
2022-11-04 18:30:00,,0821.4,4.98,0.00,24.0,22.8,00.0,32.8,25.9,15.0,-002.0,0010.07,0008.67,0008.39
2022-11-04 18:31:00,,0821.4,5.01,0.00,24.0,22.8,00.0,32.8,25.9,14.8,-001.7,0010.31,0008.67,0008.39
2022-11-04 18:32:00,,0821.4,5.01,0.00,24.0,22.8,00.0,32.8,25.9,15.1,-001.2,0010.53,0008.71,0008.41
2022-11-04 18:33:00,,0821.3,5.01,0.00,24.0,22.8,00.0,32.7,25.9,15.1,-001.1,0010.80,0008.73,0008.43
2022-11-04 18:34:00,,0821.3,5.00,0.00,24.0,22.8,00.0,32.8,25.9,14.8,-000.7,0010.83,0008.74,0008.43
2022-11-04 18:35:00,,0821.2,4.99,0.00,24.0,22.8,00.0,32.8,25.9,15.0,-000.4,0011.15,0008.74,0008.45
2022-11-04 18:36:00,,0821.2,5.00,0.00,24.0,22.8,00.0,32.8,25.9,15.2,-000.5,0011.82,0008.74,0008.46
2022-11-04 18:37:00,,0821.1,5.01,0.00,24.0,22.8,00.0,32.8,25.9,15.2,-000.7,0011.94,0008.75,0008.47
2022-11-04 18:38:00,,0821.1,5.01,0.00,24.0,22.8,00.0,32.8,25.9,15.8,-000.9,0011.95,0008.77,0008.50
2022-11-04 18:39:00,,0821.1,5.01,0.00,24.0,22.8,00.0,32.8,25.9,15.6,-001.3,0012.00,0008.78,0008.51
2022-11-04 18:40:00,,0821.2,4.99,0.00,24.0,22.8,00.0,32.8,25.9,15.2,-001.1,0012.08,0008.81,0008.53
2022-11-04 18:41:00,,0821.1,4.99,0.00,24.0,22.8,00.0,32.8,25.9,15.8,-001.0,0012.06,0008.82,0008.55
2022-11-04 18:42:00,,0821.1,5.01,0.00,24.0,22.8,00.0,32.8,25.9,15.6,-001.3,0011.76,0008.82,0008.57
2022-11-04 18:43:00,,0821.1,5.00,0.00,24.0,22.8,00.0,32.8,25.9,15.5,-001.5,0011.66,0008.83,0008.58
2022-11-04 18:44:00,,0821.1,5.00,0.00,24.0,22.8,00.0,32.8,25.9,15.5,-001.6,0011.41,0008.86,0008.61
2022-11-04 18:45:00,,0821.1,5.00,0.00,24.0,22.8,00.0,32.8,25.9,15.4,-001.4,0011.44,0008.91,0008.65
2022-11-04 18:46:00,,0821.1,5.00,0.00,24.0,22.8,00.0,32.8,25.9,15.4,-001.6,0011.29,0008.95,0008.69
2022-11-04 18:47:00,,0821.0,5.00,0.00,24.0,22.8,00.0,32.8,25.9,15.6,-001.7,0010.59,0009.02,0008.73
2022-11-04 18:48:00,,0821.0,5.01,0.00,24.0,22.9,00.0,32.8,25.9,15.8,-001.5,0010.54,0009.07,0008.78
2022-11-04 18:49:00,,0820.9,5.00,0.00,24.0,22.9,00.0,32.8,25.9,16.3,-001.6,0010.66,0009.08,0008.81
2022-11-04 18:50:00,,0820.9,4.98,0.00,24.0,22.9,00.0,32.8,26.0,15.6,-001.7,0010.86,0009.12,0008.85
2022-11-04 18:51:00,,0820.9,5.01,0.00,24.0,22.9,00.0,32.8,26.0,15.5,-001.5,0010.99,0009.17,0008.90
2022-11-04 18:52:00,,0821.0,5.01,0.00,24.1,22.9,00.0,32.8,26.0,15.8,-001.2,0011.14,0009.24,0008.96
2022-11-04 18:53:00,,0821.0,5.00,0.00,24.1,22.9,00.0,32.9,26.0,15.4,-000.7,0011.26,0009.31,0009.02
2022-11-04 18:54:00,,0821.0,5.00,0.00,24.1,22.9,00.0,32.9,26.0,15.4,-000.4,0011.36,0009.39,0009.09
2022-11-04 18:55:00,,0821.0,4.98,0.00,24.1,22.9,00.0,32.9,26.0,15.7,-000.2,0011.72,0009.41,0009.12
2022-11-04 18:56:00,,0821.0,5.00,0.00,24.1,22.9,00.0,32.9,26.0,15.5,-000.1,0011.73,0009.41,0009.13
2022-11-04 18:57:00,,0820.9,5.00,0.00,24.1,23.0,00.0,32.9,26.0,15.4,-000.1,0011.83,0009.46,0009.16
2022-11-04 18:58:00,,0820.9,5.01,0.00,24.1,22.9,00.0,32.9,26.0,15.3,-000.4,0011.89,0009.49,0009.19
2022-11-04 18:59:00,,0820.9,4.99,0.00,24.1,22.9,00.0,32.9,26.0,15.3,-000.8,0011.94,0009.51,0009.22
